Strona główna
METAR-TAF:

METAR-TAF

Lotnisko :

Port lotniczy Wakkanai

Wakkanai, Japonia

Szerokość geograficzna: 45-24N, Długość geograficzna: 141-48E, wysokość: 8 m

Aktualna obserwacja pogody

Raport powstał 31 minut temu, godzina 06:00 UTC
Wiatr 8 kt od wschodnio-południowy wschód
Temperatura 12°C
Wilgotność 58%
Ciśnienie 1024 hPa
Widzialność 10 km lub więcej
Mało chmury na wysokości 5000 ft

METAR: RJCW 220600Z 11008KT 9999 FEW050 12/04 Q1024

czas: 15:31 (06:31 UTC)


TAF: brakujący

Obserwacja i prognoza pogody dla ponad 4000 lotnisk (raport METAR i TAF).

Dostępne stacje oznaczono żółtymi i czerwonymi punktami na mapie.

Najedź kursorem aby zobaczyć nazwę stacji.

Kliknij aby zobaczyć obserwacje i prognozy pogody.

Aby zmienić mapę: kliknij na zielony przycisk z czarnym krzyżykiem, aby powiększyć; na zielony przycisk z myślnikiem, aby pomniejszyć; na zielone strzałki, aby przejść do map sąsiednich.


METAR-TAF: